Year,Month,Day,Hour,Minute,Value (Times are PST for windgust in km/hr)
2015,08,21,00,00,19.30
2015,08,21,00,01,17.70
2015,08,21,00,02,19.30
2015,08,21,00,03,16.10
2015,08,21,00,04,14.50
2015,08,21,00,05,16.10
2015,08,21,00,06,16.10
2015,08,21,00,07,11.30
2015,08,21,00,08,11.30
2015,08,21,00,09,12.90
2015,08,21,00,10,8.10
2015,08,21,00,11,12.90
2015,08,21,00,12,9.60
2015,08,21,00,13,12.90
2015,08,21,00,14,12.90
2015,08,21,00,15,14.50
2015,08,21,00,16,12.90
2015,08,21,00,17,8.10
2015,08,21,00,18,6.40
2015,08,21,00,19,14.50
2015,08,21,00,20,12.90
2015,08,21,00,21,14.50
2015,08,21,00,22,11.30
2015,08,21,00,23,9.60
2015,08,21,00,24,14.50
2015,08,21,00,25,14.50
2015,08,21,00,26,12.90
2015,08,21,00,27,16.10
2015,08,21,00,28,9.60
2015,08,21,00,29,6.40
2015,08,21,00,30,8.10
2015,08,21,00,31,6.40
2015,08,21,00,32,6.40
2015,08,21,00,33,9.60
2015,08,21,00,34,6.40
2015,08,21,00,35,6.40
2015,08,21,00,36,8.10
2015,08,21,00,37,8.10
2015,08,21,00,38,11.30
2015,08,21,00,39,6.40
2015,08,21,00,40,3.20
2015,08,21,00,41,3.20
2015,08,21,00,42,3.20
2015,08,21,00,43,4.80
2015,08,21,00,44,4.80
2015,08,21,00,45,3.20
2015,08,21,00,46,4.80
2015,08,21,00,47,4.80
2015,08,21,00,48,1.60
2015,08,21,00,49,3.20
2015,08,21,00,50,1.60
2015,08,21,00,51,1.60
2015,08,21,00,52,3.20
2015,08,21,00,53,4.80
2015,08,21,00,54,4.80
2015,08,21,00,55,3.20
2015,08,21,00,56,6.40
2015,08,21,00,57,4.80
2015,08,21,00,58,6.40
2015,08,21,00,59,6.40
2015,08,21,01,00,6.40
2015,08,21,01,01,6.40
2015,08,21,01,02,3.20
2015,08,21,01,03,4.80
2015,08,21,01,04,3.20
2015,08,21,01,05,3.20
2015,08,21,01,06,6.40
2015,08,21,01,07,4.80
2015,08,21,01,08,8.10
2015,08,21,01,09,9.60
2015,08,21,01,10,9.60
2015,08,21,01,11,6.40
2015,08,21,01,12,6.40
2015,08,21,01,13,8.10
2015,08,21,01,14,6.40
2015,08,21,01,15,6.40
2015,08,21,01,16,4.80
2015,08,21,01,17,3.20
2015,08,21,01,18,4.80
2015,08,21,01,19,4.80
2015,08,21,01,20,1.60
2015,08,21,01,21,4.80
2015,08,21,01,22,4.80
2015,08,21,01,23,4.80
2015,08,21,01,24,11.30
2015,08,21,01,25,6.40
2015,08,21,01,26,4.80
2015,08,21,01,27,11.30
2015,08,21,01,28,12.90
2015,08,21,01,29,11.30
2015,08,21,01,30,8.10
2015,08,21,01,31,11.30
2015,08,21,01,32,9.60
2015,08,21,01,33,6.40
2015,08,21,01,34,3.20
2015,08,21,01,35,4.80
2015,08,21,01,36,6.40
2015,08,21,01,37,4.80
2015,08,21,01,38,6.40
2015,08,21,01,39,6.40
2015,08,21,01,40,11.30
2015,08,21,01,41,12.90
2015,08,21,01,42,12.90
2015,08,21,01,43,12.90
2015,08,21,01,44,6.40
2015,08,21,01,45,12.90
2015,08,21,01,46,12.90
2015,08,21,01,47,20.90
2015,08,21,01,48,17.70
2015,08,21,01,49,16.10
2015,08,21,01,50,19.30
2015,08,21,01,51,12.90
2015,08,21,01,52,16.10
2015,08,21,01,53,14.50
2015,08,21,01,54,16.10
2015,08,21,01,55,19.30
2015,08,21,01,56,14.50
2015,08,21,01,57,12.90
2015,08,21,01,58,14.50
2015,08,21,01,59,12.90
2015,08,21,02,00,9.60
2015,08,21,02,01,11.30
2015,08,21,02,02,24.20
2015,08,21,02,03,27.40
2015,08,21,02,04,16.10
2015,08,21,02,05,12.90
2015,08,21,02,06,12.90
2015,08,21,02,07,9.60
2015,08,21,02,08,14.50
2015,08,21,02,09,12.90
2015,08,21,02,10,14.50
2015,08,21,02,11,6.40
2015,08,21,02,12,16.10
2015,08,21,02,13,19.30
2015,08,21,02,14,17.70
2015,08,21,02,15,16.10
2015,08,21,02,16,16.10
2015,08,21,02,17,16.10
2015,08,21,02,18,19.30
2015,08,21,02,19,12.90
2015,08,21,02,20,16.10
2015,08,21,02,21,22.50
2015,08,21,02,22,17.70
2015,08,21,02,23,11.30
2015,08,21,02,24,20.90
2015,08,21,02,25,17.70
2015,08,21,02,26,16.10
2015,08,21,02,27,14.50
2015,08,21,02,28,17.70
2015,08,21,02,29,17.70
2015,08,21,02,30,14.50
2015,08,21,02,31,12.90
2015,08,21,02,32,11.30
2015,08,21,02,33,6.40
2015,08,21,02,34,11.30
2015,08,21,02,35,12.90
2015,08,21,02,36,16.10
2015,08,21,02,37,20.90
2015,08,21,02,38,20.90
2015,08,21,02,39,14.50
2015,08,21,02,40,14.50
2015,08,21,02,41,16.10
2015,08,21,02,42,14.50
2015,08,21,02,43,16.10
2015,08,21,02,44,14.50
2015,08,21,02,45,11.30
2015,08,21,02,46,12.90
2015,08,21,02,47,19.30
2015,08,21,02,48,11.30
2015,08,21,02,49,14.50
2015,08,21,02,50,19.30
2015,08,21,02,51,11.30
2015,08,21,02,52,14.50
2015,08,21,02,53,14.50
2015,08,21,02,54,16.10
2015,08,21,02,55,11.30
2015,08,21,02,56,11.30
2015,08,21,02,57,12.90
2015,08,21,02,58,11.30
2015,08,21,02,59,14.50
2015,08,21,03,00,12.90
2015,08,21,03,01,12.90
2015,08,21,03,02,11.30
2015,08,21,03,03,20.90
2015,08,21,03,04,14.50
2015,08,21,03,05,12.90
2015,08,21,03,06,11.30
2015,08,21,03,07,11.30
2015,08,21,03,08,12.90
2015,08,21,03,09,9.60
2015,08,21,03,10,9.60
2015,08,21,03,11,17.70
2015,08,21,03,12,14.50
2015,08,21,03,13,6.40
2015,08,21,03,14,12.90
2015,08,21,03,15,12.90
2015,08,21,03,16,6.40
2015,08,21,03,17,11.30
2015,08,21,03,18,9.60
2015,08,21,03,19,12.90
2015,08,21,03,20,11.30
2015,08,21,03,21,9.60
2015,08,21,03,22,14.50
2015,08,21,03,23,12.90
2015,08,21,03,24,17.70
2015,08,21,03,25,14.50
2015,08,21,03,26,9.60
2015,08,21,03,27,11.30
2015,08,21,03,28,12.90
2015,08,21,03,29,8.10
2015,08,21,03,30,8.10
2015,08,21,03,31,12.90
2015,08,21,03,32,12.90
2015,08,21,03,33,14.50
2015,08,21,03,34,9.60
2015,08,21,03,35,17.70
2015,08,21,03,36,12.90
2015,08,21,03,37,12.90
2015,08,21,03,38,12.90
2015,08,21,03,39,14.50
2015,08,21,03,40,14.50
2015,08,21,03,41,11.30
2015,08,21,03,42,8.10
2015,08,21,03,43,8.10
2015,08,21,03,44,14.50
2015,08,21,03,45,11.30
2015,08,21,03,46,9.60
2015,08,21,03,47,6.40
2015,08,21,03,48,6.40
2015,08,21,03,49,8.10
2015,08,21,03,50,12.90
2015,08,21,03,51,12.90
2015,08,21,03,52,11.30
2015,08,21,03,53,14.50
2015,08,21,03,54,14.50
2015,08,21,03,55,14.50
2015,08,21,03,56,12.90
2015,08,21,03,57,12.90
2015,08,21,03,58,12.90
2015,08,21,03,59,12.90
2015,08,21,04,00,11.30
2015,08,21,04,01,11.30
2015,08,21,04,02,6.40
2015,08,21,04,03,11.30
2015,08,21,05,02,17.70
2015,08,21,05,03,17.70
2015,08,21,05,04,17.70
2015,08,21,05,05,14.50
2015,08,21,05,06,16.10
2015,08,21,05,07,16.10
2015,08,21,05,08,17.70
2015,08,21,05,09,16.10
2015,08,21,05,10,24.20
2015,08,21,05,11,22.50
2015,08,21,05,12,14.50
2015,08,21,05,13,17.70
2015,08,21,05,14,12.90
2015,08,21,05,15,12.90
2015,08,21,05,16,12.90
2015,08,21,05,17,11.30
2015,08,21,05,18,11.30
2015,08,21,05,19,12.90
2015,08,21,05,20,16.10
2015,08,21,05,21,17.70
2015,08,21,05,22,14.50
2015,08,21,05,23,17.70
2015,08,21,05,24,17.70
2015,08,21,05,25,9.60
2015,08,21,05,26,12.90
2015,08,21,05,27,16.10
2015,08,21,05,28,14.50
2015,08,21,05,29,9.60
2015,08,21,05,30,6.40
2015,08,21,05,31,14.50
2015,08,21,05,32,11.30
2015,08,21,05,33,11.30
2015,08,21,05,34,14.50
2015,08,21,05,35,12.90
2015,08,21,05,36,11.30
2015,08,21,05,37,9.60
2015,08,21,05,38,6.40
2015,08,21,05,39,9.60
2015,08,21,05,40,12.90
2015,08,21,05,41,14.50
2015,08,21,05,42,17.70
2015,08,21,05,43,14.50
2015,08,21,05,44,14.50
2015,08,21,05,45,11.30
2015,08,21,05,46,8.10
2015,08,21,05,47,14.50
2015,08,21,05,48,14.50
2015,08,21,05,49,12.90
2015,08,21,05,50,8.10
2015,08,21,05,51,20.90
2015,08,21,05,52,19.30
2015,08,21,05,53,19.30
2015,08,21,05,54,16.10
2015,08,21,05,55,16.10
2015,08,21,05,56,19.30
2015,08,21,05,57,12.90
2015,08,21,05,58,17.70
2015,08,21,05,59,20.90
2015,08,21,06,00,12.90
2015,08,21,06,01,16.10
2015,08,21,06,02,12.90
2015,08,21,06,03,20.90
2015,08,21,06,04,19.30
2015,08,21,06,05,17.70
2015,08,21,06,06,9.60
2015,08,21,06,07,11.30
2015,08,21,06,08,14.50
2015,08,21,06,09,17.70
2015,08,21,06,10,12.90
2015,08,21,06,11,12.90
2015,08,21,06,12,17.70
2015,08,21,06,13,22.50
2015,08,21,06,14,16.10
2015,08,21,06,15,17.70
2015,08,21,06,16,12.90
2015,08,21,06,17,11.30
2015,08,21,06,18,12.90
2015,08,21,06,19,16.10
2015,08,21,06,20,22.50
2015,08,21,06,21,17.70
2015,08,21,06,22,14.50
2015,08,21,06,23,14.50
2015,08,21,06,24,14.50
2015,08,21,06,25,14.50
2015,08,21,06,26,14.50
2015,08,21,06,27,16.10
2015,08,21,06,28,11.30
2015,08,21,06,29,6.40
2015,08,21,06,30,8.10
2015,08,21,06,31,12.90
2015,08,21,06,32,11.30
2015,08,21,06,33,12.90
2015,08,21,06,34,11.30
2015,08,21,06,35,11.30
2015,08,21,06,36,16.10
2015,08,21,06,37,14.50
2015,08,21,06,38,11.30
2015,08,21,06,39,16.10
2015,08,21,06,40,9.60
2015,08,21,06,41,16.10
2015,08,21,06,42,12.90
2015,08,21,06,43,16.10
2015,08,21,06,44,20.90
2015,08,21,06,45,14.50
2015,08,21,06,46,17.70
2015,08,21,06,47,22.50
2015,08,21,06,48,24.20
2015,08,21,06,49,14.50
2015,08,21,06,50,19.30
2015,08,21,06,51,19.30
2015,08,21,06,52,24.20
2015,08,21,06,53,16.10
2015,08,21,06,54,14.50
2015,08,21,06,55,16.10
2015,08,21,06,56,17.70
2015,08,21,06,57,16.10
2015,08,21,06,58,16.10
2015,08,21,06,59,16.10
2015,08,21,07,00,12.90
2015,08,21,07,01,11.30
2015,08,21,07,02,9.60
2015,08,21,07,03,11.30
2015,08,21,07,04,14.50
2015,08,21,07,05,6.40
2015,08,21,07,06,14.50
2015,08,21,07,07,14.50
2015,08,21,07,08,14.50
2015,08,21,07,09,12.90
2015,08,21,07,10,12.90
2015,08,21,07,11,16.10
2015,08,21,07,12,14.50
2015,08,21,07,13,12.90
2015,08,21,07,14,12.90
2015,08,21,07,15,11.30
2015,08,21,07,16,16.10
2015,08,21,07,17,14.50
2015,08,21,07,18,14.50
2015,08,21,07,19,12.90
2015,08,21,07,20,6.40
2015,08,21,07,21,8.10
2015,08,21,07,22,12.90
2015,08,21,07,23,11.30
2015,08,21,07,24,14.50
2015,08,21,07,25,14.50
2015,08,21,07,26,17.70
2015,08,21,07,27,17.70
2015,08,21,07,28,16.10
2015,08,21,07,29,14.50
2015,08,21,07,30,14.50
2015,08,21,07,31,12.90
2015,08,21,07,32,17.70
2015,08,21,07,33,20.90
2015,08,21,07,34,19.30
2015,08,21,07,35,19.30
2015,08,21,07,36,16.10
2015,08,21,07,37,12.90
2015,08,21,07,38,12.90
2015,08,21,07,39,11.30
2015,08,21,07,40,12.90
2015,08,21,07,41,19.30
2015,08,21,07,42,12.90
2015,08,21,07,43,8.10
2015,08,21,07,44,14.50
2015,08,21,07,45,20.90
2015,08,21,07,46,20.90
2015,08,21,07,47,11.30
2015,08,21,07,48,16.10
2015,08,21,07,49,17.70
2015,08,21,07,50,19.30
2015,08,21,07,51,17.70
2015,08,21,07,52,12.90
2015,08,21,07,53,14.50
2015,08,21,07,54,17.70
2015,08,21,07,55,22.50
2015,08,21,07,56,12.90
2015,08,21,07,57,22.50
2015,08,21,07,58,22.50
2015,08,21,07,59,12.90
2015,08,21,08,00,16.10
2015,08,21,08,01,19.30
2015,08,21,08,02,11.30
2015,08,21,08,03,16.10
2015,08,21,08,04,17.70
2015,08,21,08,05,20.90
2015,08,21,08,06,17.70
2015,08,21,08,07,9.60
2015,08,21,08,08,24.20
2015,08,21,08,09,17.70
2015,08,21,08,10,16.10
2015,08,21,08,11,14.50
2015,08,21,08,12,22.50
2015,08,21,08,13,16.10
2015,08,21,08,14,20.90
2015,08,21,08,15,17.70
2015,08,21,08,16,14.50
2015,08,21,08,17,14.50
2015,08,21,08,18,19.30
2015,08,21,08,19,19.30
2015,08,21,08,20,19.30
2015,08,21,08,21,8.10
2015,08,21,08,22,11.30
2015,08,21,08,23,11.30
2015,08,21,08,24,11.30
2015,08,21,08,25,16.10
2015,08,21,08,26,11.30
2015,08,21,08,27,17.70
2015,08,21,08,28,16.10
2015,08,21,08,29,12.90
2015,08,21,08,30,14.50
2015,08,21,08,31,16.10
2015,08,21,08,32,24.20
2015,08,21,08,33,19.30
2015,08,21,08,34,24.20
2015,08,21,08,35,19.30
2015,08,21,08,36,17.70
2015,08,21,08,37,17.70
2015,08,21,08,38,12.90
2015,08,21,08,39,30.60
2015,08,21,08,40,27.40
2015,08,21,08,41,24.20
2015,08,21,08,42,27.40
2015,08,21,08,43,30.60
2015,08,21,08,44,33.80
2015,08,21,08,45,24.20
2015,08,21,08,46,24.20
2015,08,21,08,47,12.90
2015,08,21,08,48,11.30
2015,08,21,08,49,19.30
2015,08,21,08,50,20.90
2015,08,21,08,51,17.70
2015,08,21,08,52,24.20
2015,08,21,08,53,14.50
2015,08,21,08,54,25.70
2015,08,21,08,55,22.50
2015,08,21,08,56,17.70
2015,08,21,08,57,14.50
2015,08,21,08,58,14.50
2015,08,21,08,59,17.70
2015,08,21,09,00,16.10
2015,08,21,09,01,17.70
2015,08,21,09,02,17.70
2015,08,21,09,03,17.70
2015,08,21,09,04,20.90
2015,08,21,09,05,20.90
2015,08,21,09,06,20.90
2015,08,21,09,07,22.50
2015,08,21,09,08,17.70
2015,08,21,09,09,12.90
2015,08,21,09,10,20.90
2015,08,21,09,11,20.90
2015,08,21,09,12,20.90
2015,08,21,09,13,14.50
2015,08,21,09,14,19.30
2015,08,21,09,15,14.50
2015,08,21,09,16,14.50
2015,08,21,09,17,14.50
2015,08,21,09,18,16.10
2015,08,21,09,19,16.10
2015,08,21,09,20,14.50
2015,08,21,09,21,14.50
2015,08,21,09,22,22.50
2015,08,21,09,23,17.70
2015,08,21,09,24,24.20
2015,08,21,09,25,20.90
2015,08,21,09,26,22.50
2015,08,21,09,27,22.50
2015,08,21,09,28,25.70
2015,08,21,09,29,30.60
2015,08,21,09,30,27.40
2015,08,21,09,31,22.50
2015,08,21,09,32,24.20
2015,08,21,09,33,27.40
2015,08,21,09,34,25.70
2015,08,21,09,35,29.00
2015,08,21,09,36,14.50
2015,08,21,09,37,22.50
2015,08,21,09,38,20.90
2015,08,21,09,39,27.40
2015,08,21,09,40,22.50
2015,08,21,09,41,17.70
2015,08,21,09,42,17.70
2015,08,21,09,43,20.90
2015,08,21,09,44,19.30
2015,08,21,09,45,22.50
2015,08,21,09,46,16.10
2015,08,21,09,47,25.70
2015,08,21,09,48,24.20
2015,08,21,09,49,27.40
2015,08,21,09,50,17.70
2015,08,21,09,51,24.20
2015,08,21,09,52,22.50
2015,08,21,09,53,19.30
2015,08,21,09,54,16.10
2015,08,21,09,55,17.70
2015,08,21,09,56,22.50
2015,08,21,09,57,30.60
2015,08,21,09,58,25.70
2015,08,21,09,59,22.50
2015,08,21,10,00,19.30
2015,08,21,10,01,22.50
2015,08,21,10,02,17.70
2015,08,21,10,03,20.90
2015,08,21,10,04,24.20
2015,08,21,10,05,20.90
2015,08,21,10,06,22.50
2015,08,21,10,07,19.30
2015,08,21,10,08,22.50
2015,08,21,10,09,19.30
2015,08,21,10,10,16.10
2015,08,21,10,11,17.70
2015,08,21,10,12,16.10
2015,08,21,10,13,22.50
2015,08,21,10,14,20.90
2015,08,21,10,15,14.50
2015,08,21,10,16,16.10
2015,08,21,10,17,20.90
2015,08,21,10,18,27.40
2015,08,21,10,19,17.70
2015,08,21,10,20,19.30
2015,08,21,10,21,16.10
2015,08,21,10,22,19.30
2015,08,21,10,23,20.90
2015,08,21,10,24,22.50
2015,08,21,10,25,22.50
2015,08,21,10,26,20.90
2015,08,21,10,27,25.70
2015,08,21,10,28,24.20
2015,08,21,10,29,25.70
2015,08,21,10,30,25.70
2015,08,21,10,31,27.40
2015,08,21,10,32,25.70
2015,08,21,10,33,27.40
2015,08,21,10,34,12.90
2015,08,21,10,35,17.70
2015,08,21,10,36,19.30
2015,08,21,10,37,22.50
2015,08,21,10,38,19.30
2015,08,21,10,39,20.90
2015,08,21,10,40,16.10
2015,08,21,10,41,17.70
2015,08,21,10,42,20.90
2015,08,21,10,43,32.20
2015,08,21,10,44,20.90
2015,08,21,10,45,17.70
2015,08,21,10,46,16.10
2015,08,21,10,47,25.70
2015,08,21,10,48,20.90
2015,08,21,10,49,17.70
2015,08,21,10,50,25.70
2015,08,21,10,51,22.50
2015,08,21,10,52,16.10
2015,08,21,10,53,19.30
2015,08,21,10,54,27.40
2015,08,21,10,55,27.40
2015,08,21,10,56,25.70
2015,08,21,10,57,24.20
2015,08,21,10,58,30.60
2015,08,21,10,59,19.30
2015,08,21,11,00,20.90
2015,08,21,11,01,19.30
2015,08,21,11,02,19.30
2015,08,21,11,03,24.20
2015,08,21,11,04,11.30
2015,08,21,11,05,19.30
2015,08,21,11,06,20.90
2015,08,21,11,07,27.40
2015,08,21,11,08,20.90
2015,08,21,11,09,27.40
2015,08,21,11,10,20.90
2015,08,21,11,11,20.90
2015,08,21,11,12,25.70
2015,08,21,11,13,24.20
2015,08,21,11,14,27.40
2015,08,21,11,15,22.50
2015,08,21,11,16,29.00
2015,08,21,11,17,27.40
2015,08,21,11,18,29.00
2015,08,21,11,19,22.50
2015,08,21,11,20,25.70
2015,08,21,11,21,24.20
2015,08,21,11,22,29.00
2015,08,21,11,23,27.40
2015,08,21,11,24,22.50
2015,08,21,11,25,19.30
2015,08,21,11,26,25.70
2015,08,21,11,27,20.90
2015,08,21,11,28,25.70
2015,08,21,11,29,19.30
2015,08,21,11,30,16.10
2015,08,21,11,31,17.70
2015,08,21,11,32,27.40
2015,08,21,11,33,17.70
2015,08,21,11,34,19.30
2015,08,21,11,35,17.70
2015,08,21,11,36,24.20
2015,08,21,11,37,20.90
2015,08,21,11,38,17.70
2015,08,21,11,39,20.90
2015,08,21,11,40,22.50
2015,08,21,11,41,29.00
2015,08,21,11,42,17.70
2015,08,21,11,43,24.20
2015,08,21,11,44,27.40
2015,08,21,11,45,20.90
2015,08,21,11,46,27.40
2015,08,21,11,47,29.00
2015,08,21,11,48,19.30
2015,08,21,11,49,20.90
2015,08,21,11,50,17.70
2015,08,21,11,51,16.10
2015,08,21,11,52,17.70
2015,08,21,11,53,29.00
2015,08,21,11,54,22.50
2015,08,21,11,55,22.50
2015,08,21,11,56,22.50
2015,08,21,11,57,30.60
2015,08,21,11,58,22.50
2015,08,21,11,59,24.20
2015,08,21,12,00,29.00
2015,08,21,12,01,30.60
2015,08,21,12,02,25.70
2015,08,21,12,03,22.50
2015,08,21,12,04,32.20
2015,08,21,12,05,30.60
2015,08,21,12,06,30.60
2015,08,21,12,07,25.70
2015,08,21,12,08,17.70
2015,08,21,12,09,19.30
2015,08,21,12,10,16.10
2015,08,21,12,11,17.70
2015,08,21,12,12,19.30
2015,08,21,12,13,30.60
2015,08,21,12,14,30.60
2015,08,21,12,15,27.40
2015,08,21,12,16,25.70
2015,08,21,12,17,24.20
2015,08,21,12,18,24.20
2015,08,21,12,19,22.50
2015,08,21,12,20,29.00
2015,08,21,12,21,24.20
2015,08,21,12,22,22.50
2015,08,21,12,23,17.70
2015,08,21,12,24,14.50
2015,08,21,12,25,24.20
2015,08,21,12,26,25.70
2015,08,21,12,27,25.70
2015,08,21,12,28,32.20
2015,08,21,12,29,27.40
2015,08,21,12,30,20.90
2015,08,21,12,31,19.30
2015,08,21,12,32,30.60
2015,08,21,12,33,33.80
2015,08,21,12,34,30.60
2015,08,21,12,35,25.70
2015,08,21,12,36,22.50
2015,08,21,12,37,16.10
2015,08,21,12,38,27.40
2015,08,21,12,39,27.40
2015,08,21,12,40,24.20
2015,08,21,12,41,19.30
2015,08,21,12,42,30.60
2015,08,21,12,43,30.60
2015,08,21,12,44,29.00
2015,08,21,12,45,30.60
2015,08,21,12,46,22.50
2015,08,21,12,47,25.70
2015,08,21,12,48,30.60
2015,08,21,12,49,32.20
2015,08,21,12,50,24.20
2015,08,21,12,51,30.60
2015,08,21,12,52,19.30
2015,08,21,12,53,20.90
2015,08,21,12,54,19.30
2015,08,21,12,55,22.50
2015,08,21,12,56,20.90
2015,08,21,12,57,20.90
2015,08,21,12,58,17.70
2015,08,21,12,59,19.30
2015,08,21,13,00,16.10
2015,08,21,13,01,19.30
2015,08,21,13,02,17.70
2015,08,21,13,03,20.90
2015,08,21,13,04,24.20
2015,08,21,13,05,29.00
2015,08,21,13,06,29.00
2015,08,21,13,07,27.40
2015,08,21,13,08,27.40
2015,08,21,13,09,20.90
2015,08,21,13,10,19.30
2015,08,21,13,11,24.20
2015,08,21,13,12,30.60
2015,08,21,13,13,24.20
2015,08,21,13,14,30.60
2015,08,21,13,15,25.70
2015,08,21,13,16,27.40
2015,08,21,13,17,20.90
2015,08,21,13,18,24.20
2015,08,21,13,19,22.50
2015,08,21,13,20,24.20
2015,08,21,13,21,20.90
2015,08,21,13,22,25.70
2015,08,21,13,23,22.50
2015,08,21,13,24,27.40
2015,08,21,13,25,19.30
2015,08,21,13,26,27.40
2015,08,21,13,27,20.90
2015,08,21,13,28,19.30
2015,08,21,13,29,24.20
2015,08,21,13,30,25.70
2015,08,21,13,31,24.20
2015,08,21,13,32,24.20
2015,08,21,13,33,29.00
2015,08,21,13,34,29.00
2015,08,21,13,35,35.40
2015,08,21,13,36,20.90
2015,08,21,13,37,30.60
2015,08,21,13,38,27.40
2015,08,21,13,39,19.30
2015,08,21,13,40,35.40
2015,08,21,13,41,33.80
2015,08,21,13,42,27.40
2015,08,21,13,43,25.70
2015,08,21,13,44,29.00
2015,08,21,13,45,30.60
2015,08,21,13,46,29.00
2015,08,21,13,47,29.00
2015,08,21,13,48,19.30
2015,08,21,13,49,22.50
2015,08,21,13,50,22.50
2015,08,21,13,51,24.20
2015,08,21,13,52,24.20
2015,08,21,13,53,20.90
2015,08,21,13,54,20.90
2015,08,21,13,55,24.20
2015,08,21,13,56,20.90
2015,08,21,13,57,25.70
2015,08,21,13,58,16.10
2015,08,21,13,59,16.10
2015,08,21,14,00,27.40
2015,08,21,14,01,25.70
2015,08,21,14,02,20.90
2015,08,21,14,03,29.00
2015,08,21,14,04,24.20
2015,08,21,14,05,27.40
2015,08,21,14,06,16.10
2015,08,21,14,07,19.30
2015,08,21,14,08,12.90
2015,08,21,14,09,20.90
2015,08,21,14,10,24.20
2015,08,21,14,11,24.20
2015,08,21,14,12,22.50
2015,08,21,14,13,24.20
2015,08,21,14,14,20.90
2015,08,21,14,15,19.30
2015,08,21,14,16,12.90
2015,08,21,14,17,24.20
2015,08,21,14,18,19.30
2015,08,21,14,19,22.50
2015,08,21,14,20,22.50
2015,08,21,14,21,24.20
2015,08,21,14,22,24.20
2015,08,21,14,23,22.50
2015,08,21,14,24,25.70
2015,08,21,14,25,19.30
2015,08,21,14,26,22.50
2015,08,21,14,27,25.70
2015,08,21,14,28,16.10
2015,08,21,14,29,22.50
2015,08,21,14,30,20.90
2015,08,21,14,31,17.70
2015,08,21,14,32,22.50
2015,08,21,14,33,20.90
2015,08,21,14,34,27.40
2015,08,21,14,35,20.90
2015,08,21,14,36,25.70
2015,08,21,14,37,29.00
2015,08,21,14,38,25.70
2015,08,21,14,39,32.20
2015,08,21,14,40,25.70
2015,08,21,14,41,19.30
2015,08,21,14,42,24.20
2015,08,21,14,43,25.70
2015,08,21,14,44,24.20
2015,08,21,14,45,22.50
2015,08,21,14,46,19.30
2015,08,21,14,47,25.70
2015,08,21,14,48,24.20
2015,08,21,14,49,19.30
2015,08,21,14,50,27.40
2015,08,21,14,51,24.20
2015,08,21,14,52,27.40
2015,08,21,14,53,22.50
2015,08,21,14,54,30.60
2015,08,21,14,55,22.50
2015,08,21,14,56,22.50
2015,08,21,14,57,29.00
2015,08,21,14,58,25.70
2015,08,21,14,59,24.20
2015,08,21,15,00,24.20
2015,08,21,15,01,22.50
2015,08,21,15,02,20.90
2015,08,21,15,03,27.40
2015,08,21,15,04,22.50
2015,08,21,15,05,20.90
2015,08,21,15,06,24.20
2015,08,21,15,07,22.50
2015,08,21,15,08,17.70
2015,08,21,15,09,14.50
2015,08,21,15,10,32.20
2015,08,21,15,11,33.80
2015,08,21,15,12,27.40
2015,08,21,15,13,24.20
2015,08,21,15,14,32.20
2015,08,21,15,15,19.30
2015,08,21,15,16,27.40
2015,08,21,15,17,30.60
2015,08,21,15,18,25.70
2015,08,21,15,19,22.50
2015,08,21,15,20,25.70
2015,08,21,15,21,24.20
2015,08,21,15,22,25.70
2015,08,21,15,23,24.20
2015,08,21,15,24,29.00
2015,08,21,15,25,20.90
2015,08,21,15,26,22.50
2015,08,21,15,27,27.40
2015,08,21,15,28,30.60
2015,08,21,15,29,29.00
2015,08,21,15,30,30.60
2015,08,21,15,31,25.70
2015,08,21,15,32,24.20
2015,08,21,15,33,25.70
2015,08,21,15,34,35.40
2015,08,21,15,35,30.60
2015,08,21,15,36,24.20
2015,08,21,15,37,22.50
2015,08,21,15,38,25.70
2015,08,21,15,39,25.70
2015,08,21,15,40,27.40
2015,08,21,15,41,29.00
2015,08,21,15,42,24.20
2015,08,21,15,43,25.70
2015,08,21,15,44,30.60
2015,08,21,15,45,24.20
2015,08,21,15,46,24.20
2015,08,21,15,47,25.70
2015,08,21,15,48,29.00
2015,08,21,15,49,22.50
2015,08,21,15,50,17.70
2015,08,21,15,51,17.70
2015,08,21,15,52,12.90
2015,08,21,15,53,20.90
2015,08,21,15,54,19.30
2015,08,21,15,55,22.50
2015,08,21,15,56,27.40
2015,08,21,15,57,20.90
2015,08,21,15,58,22.50
2015,08,21,15,59,19.30
2015,08,21,16,00,29.00
2015,08,21,16,01,20.90
2015,08,21,16,02,22.50
2015,08,21,16,03,22.50
2015,08,21,16,04,20.90
2015,08,21,16,05,16.10
2015,08,21,16,06,22.50
2015,08,21,16,07,22.50
2015,08,21,16,08,29.00
2015,08,21,16,09,19.30
2015,08,21,16,10,24.20
2015,08,21,16,11,20.90
2015,08,21,16,12,20.90
2015,08,21,16,13,22.50
2015,08,21,16,14,24.20
2015,08,21,16,15,17.70
2015,08,21,16,16,19.30
2015,08,21,16,17,22.50
2015,08,21,16,18,24.20
2015,08,21,16,19,22.50
2015,08,21,16,20,27.40
2015,08,21,16,21,25.70
2015,08,21,16,22,22.50
2015,08,21,16,23,22.50
2015,08,21,16,24,16.10
2015,08,21,16,25,20.90
2015,08,21,16,26,19.30
2015,08,21,16,27,16.10
2015,08,21,16,28,19.30
2015,08,21,16,29,17.70
2015,08,21,16,30,19.30
2015,08,21,16,31,22.50
2015,08,21,16,32,20.90
2015,08,21,16,33,20.90
2015,08,21,16,34,22.50
2015,08,21,16,35,19.30
2015,08,21,16,36,17.70
2015,08,21,16,37,24.20
2015,08,21,16,38,19.30
2015,08,21,16,39,17.70
2015,08,21,16,40,22.50
2015,08,21,16,41,22.50
2015,08,21,16,42,19.30
2015,08,21,16,43,22.50
2015,08,21,16,44,17.70
2015,08,21,16,45,17.70
2015,08,21,16,46,17.70
2015,08,21,16,47,20.90
2015,08,21,16,48,19.30
2015,08,21,16,49,20.90
2015,08,21,16,50,19.30
2015,08,21,16,51,16.10
2015,08,21,16,52,20.90
2015,08,21,16,53,20.90
2015,08,21,16,54,16.10
2015,08,21,16,55,17.70
2015,08,21,16,56,20.90
2015,08,21,16,57,24.20
2015,08,21,16,58,20.90
2015,08,21,16,59,17.70
2015,08,21,17,00,16.10
2015,08,21,17,01,27.40
2015,08,21,17,02,20.90
2015,08,21,17,03,20.90
2015,08,21,17,04,20.90
2015,08,21,17,05,19.30
2015,08,21,17,06,17.70
2015,08,21,17,07,17.70
2015,08,21,17,08,17.70
2015,08,21,17,09,17.70
2015,08,21,17,10,16.10
2015,08,21,17,11,19.30
2015,08,21,17,12,19.30
2015,08,21,17,13,19.30
2015,08,21,17,14,22.50
2015,08,21,17,15,20.90
2015,08,21,17,16,20.90
2015,08,21,17,17,17.70
2015,08,21,17,18,22.50
2015,08,21,17,19,22.50
2015,08,21,17,20,16.10
2015,08,21,17,21,19.30
2015,08,21,17,22,27.40
2015,08,21,17,23,25.70
2015,08,21,17,24,25.70
2015,08,21,17,25,24.20
2015,08,21,17,26,22.50
2015,08,21,17,27,22.50
2015,08,21,17,28,17.70
2015,08,21,17,29,17.70
2015,08,21,17,30,17.70
2015,08,21,17,31,20.90
2015,08,21,17,32,17.70
2015,08,21,17,33,22.50
2015,08,21,17,34,16.10
2015,08,21,17,35,19.30
2015,08,21,17,36,20.90
2015,08,21,17,37,24.20
2015,08,21,17,38,22.50
2015,08,21,17,39,14.50
2015,08,21,17,40,22.50
2015,08,21,17,41,19.30
2015,08,21,17,42,24.20
2015,08,21,17,43,19.30
2015,08,21,17,44,6.40
2015,08,21,17,45,9.60
2015,08,21,17,46,12.90
2015,08,21,17,47,11.30
2015,08,21,17,48,17.70
2015,08,21,17,49,17.70
2015,08,21,17,50,16.10
2015,08,21,17,51,17.70
2015,08,21,17,52,25.70
2015,08,21,17,53,16.10
2015,08,21,17,54,12.90
2015,08,21,17,55,20.90
2015,08,21,17,56,19.30
2015,08,21,17,57,17.70
2015,08,21,17,58,12.90
2015,08,21,17,59,17.70
2015,08,21,18,00,19.30
2015,08,21,18,01,14.50
2015,08,21,18,02,14.50
2015,08,21,18,03,17.70
2015,08,21,18,04,16.10
2015,08,21,18,05,19.30
2015,08,21,18,06,16.10
2015,08,21,18,07,17.70
2015,08,21,18,08,17.70
2015,08,21,18,09,17.70
2015,08,21,18,10,16.10
2015,08,21,18,11,16.10
2015,08,21,18,12,19.30
2015,08,21,18,13,17.70
2015,08,21,18,14,16.10
2015,08,21,18,15,14.50
2015,08,21,18,16,12.90
2015,08,21,18,17,16.10
2015,08,21,18,18,19.30
2015,08,21,18,19,11.30
2015,08,21,18,20,19.30
2015,08,21,18,21,20.90
2015,08,21,18,22,17.70